Location: Churchill Northern Studies Centre
(58.7378°N, 93.8201°W)
Time: 07:37:16
(UTC-05:00)

ISS - Pass Details

Date: 10 October 2017
Orbit: 401 x 408 km, 51.6° (Epoch: 20 October)

Event Time Altitude Azimuth Distance (km) Brightness Sun altitude
Rises 20:13:41 0° 264° (W) 2,328 1.5 -15.2°
Reaches altitude 10° 20:16:47 10° 233° (SW) 1,467 -0.4 -15.6°
Maximum altitude 20:18:08 12° 208° (SSW) 1,347 -1.0 -15.8°
Drops below altitude 10° 20:19:29 10° 184° (S) 1,466 -1.1 -16.0°
Enters shadow 20:20:04 - 175° (S) 1,580 -1.0 -16.1°
